OpenBCM V2.0.3 (Linux)

Packet Radio Mailbox

IZ3LSV

[San Dona' di P. JN]

 Login: GUEST





  
LU9DCE > KEPS     12.01.18 18:36l 258 Lines 12932 Bytes #999 (0) @ LUNET
BID : 29153_LU9DCE
Read: GUEST
Subj: SAT TLE OF 12
Path: IZ3LSV<IQ2LB<IQ5KG<IK1NHL<CX2SA<EA2RCF<LU9DCE
Sent: 180112/1601Z @:LU9DCE.TOR.BA.ARG.SOAM #:29153 [TORTUGUITAS] FBB7.0.8-beta
From: LU9DCE@LU9DCE.TOR.BA.ARG.SOAM
To  : KEPS@LUNET


            __    _  _  ___  ____   ___  ____    ____  ____  ____
           (  )  / )( \/ _ \(    \ / __)(  __)  (  _ \(  _ \/ ___)
           / (_/\) \/ (\__  )) D (( (__  ) _)    ) _ ( ) _ (\___ \
           \____/\____/(___/(____/ \___)(____)  (____/(____/(____/
               ESTACION DE PACKET RADIO - BUENOS AIRES (GF05OM)
                   BOLETINES INFORMATIVOS PROGRAMADOS (BIP)
                    LU9DCE@GMX.COM - RF 147070 @ 1200 BAUD
                        https://lu9dce.wordpress.com/
                      telnet lu9dce.dynu.com port 6300

+------------------------------------------------------------------------------+
OSCAR 7
1  7530U 74089B   18011.92271250 -.00000034 +00000-0 +66527-4 0  9990
2  7530 101.6642 341.7338 0011833 278.6631 150.1114 12.53630652974786
OSCAR 11 (UoSAT 2)
1 14781U 84021B   18012.54318127  .00000071  00000-0  14997-4 0  9991
2 14781  97.6708  55.2183 0007409 226.6478 133.4119 14.82972794821375
OSCAR 19 (LUSAT)
1 20442U 90005G   18012.42416894  .00000003  00000-0  17311-4 0  9996
2 20442  98.5963 311.9975 0010673 248.4758 111.5289 14.32884026461583
KITSAT B
1 22825U 93061C   18011.91120304 +.00000000 +00000-0 +17895-4 0  9993
2 22825 098.8423 345.3705 0009479 083.1467 277.0792 14.30018959266963
POSAT 1
1 22826U 93061D   18011.89420732  .00000016  00000-0  23817-4 0  9997
2 22826  98.8364 345.4104 0009989  74.1164 286.1118 14.30349673267416
RADIO ROSTO
1 23439U 94085A   18011.97664478 -.00000030 +00000-0 +35698-3 0  9997
2 23439 064.8142 241.4747 0162233 209.7386 252.0577 11.27566324948959
JAS 2
1 24278U 96046B   18012.20662273 -.00000041  00000-0 -72264-5 0  9991
2 24278  98.5314 232.3226 0350806 155.4171 206.4154 13.53080392 57144
TECHSAT 1B
1 25397U 98043D   18012.14568019 -.00000020  00000-0  10385-4 0  9990
2 25397  98.6343 315.3022 0002330 101.2902 258.8538 14.23637758 13526
ISS (ZARYA)
1 25544U 98067A   18011.65344505 +.00003116 +00000-0 +53990-4 0  9994
2 25544 051.6426 079.0696 0003478 002.6590 144.2138 15.54293905094174
PCSAT
1 26931U 01043C   18011.95165382 -.00000041 +00000-0 +16137-4 0  9997
2 26931 067.0514 272.5427 0005247 276.2107 083.8396 14.30490334850133
SAUDISAT 1C
1 27607U 02058C   18012.04650079 -.00000001  00000-0  20558-4 0  9996
2 27607  64.5536 207.2800 0046211   7.6552 352.5245 14.75411110809920
CUTE-1
1 27844U 03031E   18011.90395213 +.00000065 +00000-0 +49181-4 0  9993
2 27844 098.6886 022.8560 0010805 102.7853 257.4532 14.22088030753949
CUBESAT XI 4
1 27848U 03031J   18011.96071728 +.00000046 +00000-0 +40651-4 0  9997
2 27848 098.6975 023.2549 0010663 111.6224 248.6090 14.21695627753831
MOZHAYETS 4
1 27939U 03042A   18012.56133197  .00000107  00000-0  27648-4 0  9995
2 27939  97.9659 155.9482 0011663 283.1650 144.4789 14.66648476764009
CUBESAT XI 5
1 28895U 05043F   18011.36896856 +.00000139 +00000-0 +35533-4 0  9992
2 28895 097.8856 169.3887 0016425 201.0529 159.0000 14.63496633650939
CUTE-1.7+APD II
1 32785U 08021C   18011.84456278 +.00000229 +00000-0 +30542-4 0  9992
2 32785 097.5540 031.4395 0012794 190.4813 169.6139 14.88044155525929
DELFI C3
1 32789U 08021G   18011.89134213 +.00001363 +00000-0 +98369-4 0  9994
2 32789 097.5347 070.5218 0014095 110.1357 250.1387 15.05669580528169
SEEDS
1 32791U 08021J   18011.58223112  .00000256  00000-0  31668-4 0  9999
2 32791  97.5472  36.1646 0013588 173.6471 186.4922 14.90442131526181
YUBELEINY
1 32953U 08025A   18012.38239714  .00000001  00000-0 -62370-4 0  9990
2 32953  82.5041 109.5833 0019537 186.7749 173.3070 12.43080881437415
PRISM (HITOMI)
1 33493U 09002B   18012.00315009  .00001171  00000-0  10968-3 0  9990
2 33493  98.1457 267.9720 0016566 109.0549 251.2467 14.96042394486998
KKS-1 (KISEKI)
1 33499U 09002H   18011.84687148  .00000114  00000-0  24883-4 0  9991
2 33499  98.3457 188.6000 0010378  73.0437 287.1908 14.75283356482128
SWISSCUBE
1 35932U 09051B   18012.38454814  .00000126  00000-0  39573-4 0  9996
2 35932  98.5216 160.0149 0007013 335.9856  24.1012 14.56109845440760
BEESAT
1 35933U 09051C   18011.94218828  .00000114  00000-0  36816-4 0  9995
2 35933  98.5254 161.0092 0005519 354.5069   5.6066 14.56218789440809
ITUPSAT 1
1 35935U 09051E   18011.63399274 +.00000093 +00000-0 +32567-4 0  9993
2 35935 098.5367 160.9488 0007717 346.2751 013.8235 14.55401906440556
XIWANG-1 (HOPE-1)
1 36122U 09072B   18011.89821301 -.00000048 +00000-0 -14697-4 0  9990
2 36122 100.0854 033.7883 0008123 112.0400 248.1577 13.16342941388094
TISAT 1
1 36799U 10035E   18011.85618222  .00000372  00000-0  44006-4 0  9998
2 36799  98.0842 144.1726 0012335   8.0919 352.0494 14.90664983406864
JUGNU
1 37839U 11058B   18011.12150477  .00000298  00000-0  16891-4 0  9991
2 37839  19.9609 269.6620 0018865 315.3543 196.1881 14.12606019323135
SRMSAT
1 37841U 11058D   18012.15129230  .00000301  00000-0  20268-4 0  9999
2 37841  19.9727 309.4028 0011834 215.7516 104.4708 14.10595956322826
M-CUBED/EXP-1 PRIME
1 37855U 11061F   18011.89316083 +.00001254 +00000-0 +72354-4 0  9993
2 37855 101.7216 354.4624 0177905 184.6028 175.3555 15.03974633337683
HORYU 2
1 38340U 12025D   18011.96819220 +.00000220 +00000-0 +40491-4 0  9992
2 38340 098.3748 028.2544 0011394 354.2745 005.8331 14.75482144293668
STRAND 1
1 39090U 13009E   18012.13368802  .00000027  00000-0  24822-4 0  9998
2 39090  98.5338 220.4075 0009995  45.4833 314.7167 14.35006278255443
BEESAT 3
1 39134U 13015E   18012.48916572  .00001072  00000-0  60655-4 0  9990
2 39134  64.8634 270.3912 0029401 230.6913 129.1607 15.18708936261257
SOMP
1 39135U 13015F   18012.19409549  .00000796  00000-0  50679-4 0  9997
2 39135  64.8697 282.7102 0030646 255.1615 104.6115 15.16312048260994
BEESAT 2
1 39136U 13015G   18012.17581141  .00000659  00000-0  44315-4 0  9993
2 39136  64.8700 285.1419 0031043 253.4464 106.3251 15.15795717260945
CUBEBUG 1
1 39153U 13018D   18012.23857005  .00000203  00000-0  33568-4 0  9990
2 39153  97.9821 108.4136 0018392  91.9235 268.4084 14.80323253254525
ZACUBE
1 39417U 13066B   18012.50268929  .00000221  00000-0  34468-4 0  9997
2 39417  97.6056  49.3086 0057925 305.8368  53.7472 14.80858188223758
TRITON 1
1 39427U 13066M   18011.96778710 +.00000232 +00000-0 +44871-4 0  9992
2 39427 097.6365 018.3090 0115109 040.4666 320.5030 14.67595716221477
GOMX 1
1 39430U 13066Q   18012.49212033  .00000245  00000-0  52867-4 0  9994
2 39430  97.6808   0.7440 0153049 101.9548 259.8857 14.59003853220459
HUMSAT D
1 39433U 13066T   18012.15742662  .00000353  00000-0  40359-4 0  9999
2 39433  97.6271  73.8251 0029827 240.5559 119.2683 14.91715558225162
50 SAT
1 39436U 13066W   18011.83399569  .00045943  00000-0  68094-3 0  9999
2 39436  97.7114 135.4096 0005452  40.1038 320.0617 15.55105577228851
CUBEBUG 2
1 39440U 13066AA  18012.11243417  .00000242  00000-0  40955-4 0  9996
2 39440  97.6114  36.5472 0080102 343.3629  16.4956 14.75595767222900
FUNCUBE 1
1 39444U 13066AE  18011.83656090 +.00000252 +00000-0 +37829-4 0  9990
2 39444 097.6071 050.0017 0057078 303.9430 055.6365 14.81619913221916
UWE-3
1 39446U 13066AG  18012.06393206  .00000214  00000-0  35442-4 0  9992
2 39446  97.6073  42.3491 0069419 325.8474  33.8281 14.78128557222059
SPROUT
1 39770U 14029E   18012.51921003  .00000606  00000-0  74485-4 0  9999
2 39770  97.8752 114.9436 0009212   9.8709 350.2701 14.86626516197236
UNISAT 6
1 40012U 14033C   18012.19457385  .00000174  00000-0  33678-4 0  9995
2 40012  97.8298 254.0293 0058233 343.0009  16.9247 14.73749774191729
DUCHIFAT 1
1 40021U 14033M   18011.74606861  .00000329  00000-0  39833-4 0  9991
2 40021  97.9176 290.1838 0012622 340.5055  19.5678 14.90166289193650
QB50P1
1 40025U 14033R   18012.20761237  .00000243  00000-0  32148-4 0  9993
2 40025  97.9092 287.8971 0012170 344.7942  15.2907 14.88614796193589
CHUBUSAT 1
1 40300U 14070C   18012.47592684  .00000640  00000-0  31506-4 0  9995
2 40300  97.3793  93.4115 0022144  88.0157 328.9581 15.21338396176609
NUDT-PHONESAT
1 40900U 15049B   18012.05648657  .00002054  00000-0  96573-4 0  9990
2 40900  97.4426  22.1796 0012768 209.7245 150.3267 15.20650318128182
ZDPS 2A
1 40901U 15049C   18012.53448047  .00000895  00000-0  48911-4 0  9999
2 40901  97.4586  21.3495 0012844 213.2364 146.8064 15.16794915128063
ZDPS 2B
1 40902U 15049D   18012.15788009  .00000807  00000-0  44677-4 0  9991
2 40902  97.4472  19.2666 0012950 211.6512 148.3944 15.16605073127990
XW-2A
1 40903U 15049E   18012.50998021  .00001852  00000-0  48666-4 0  9991
2 40903  97.4026  45.7133 0013122 227.3696 132.6444 15.39881901129846
KAITUO 1A
1 40904U 15049F   18012.47290493  .00000630  00000-0  37342-4 0  9998
2 40904  97.4574  19.0068 0013575 213.4302 301.9900 15.14846494127924
OBJECT G
1 40905U 15049G   18012.49233809  .00000430  00000-0  27371-4 0  9998
2 40905  97.4552  17.3671 0015135 204.1900 155.8623 15.13827558127867
XW-2C
1 40906U 15049H   18012.51827286  .00000654  00000-0  38508-4 0  9992
2 40906  97.4577  18.9110 0014391 203.9552 156.1012 15.14970443127929
XW-2D
1 40907U 15049J   18012.55143202  .00000688  00000-0  40212-4 0  9998
2 40907  97.4548  18.6621 0013795 201.4394 158.6262 15.15104941127934
LILACSAT 2
1 40908U 15049K   18011.91243744 +.00000355 +00000-0 +23494-4 0  9994
2 40908 097.4656 017.5891 0015359 204.5807 155.4694 15.13379281127734
XW-2F
1 40910U 15049M   18012.22086281  .00001033  00000-0  56816-4 0  9991
2 40910  97.4560  19.3733 0014600 199.4021 160.6658 15.16189205127819
XW-2B
1 40911U 15049N   18012.49745197  .00000674  00000-0  39505-4 0  9995
2 40911  97.4588  19.0844 0013699 202.0958 157.9686 15.15055158127826
